Regional Weather Roundup
Issued by NWS

Home | Current Version | Previous Version | Text Only | Print | Product List | Glossary On
Versions: 1 2 3 4 5 6 7 8 9 10 11 12 13 14 15 16 17 18 19 20 21 22 23 24 25 26 27 28 29 30 31 32 33 34 35 36 37 38 39 40 41 42 43 44 45 46 47 48 49 50
000
ASUS43 KLSX 101410
RWRMO

WEATHER SUMMARY FOR MISSOURI
NATIONAL WEATHER SERVICE SPRINGFIELD MO
800 AM CST SAT DEC 10 2016

NOTE: "FAIR" INDICATES FEW OR NO CLOUDS BELOW 12,000 FEET WITH NO
       SIGNIFICANT WEATHER AND/OR OBSTRUCTIONS TO VISIBILITY.
       CURRENT SKY AND/OR WEATHER CONDITIONS ARE NOT AVAILABLE FOR
       CHILLICOTHE AND FARMINGTON.

MOZ001>031-035>038-043-044-053-054-101500-
...NORTHERN AND WESTERN MISSOURI...

CITY           SKY/WX    TMP DP  RH WIND       PRES   REMARKS
KANSAS CTY INT CLOUDY    26  13  57 SE9       30.41F WCI  17
KANSAS C DTWN  CLOUDY    28  15  58 E5        30.43F WCI  23
LEE`S SUMMIT   CLOUDY    26  16  65 SE9       30.42F WCI  17
ST JOSEPH      CLOUDY    26  14  60 SE6       30.43F WCI  19
CHILLICOTHE      N/A     25  14  63 SE6       30.49S WCI  18
KIRKSVILLE     CLOUDY    24  15  68 SE8       30.48F WCI  15

$$
MOZ066>068-077>081-088>096-101>105-101500-
...SOUTHWEST MISSOURI...

CITY           SKY/WX    TMP DP  RH WIND       PRES   REMARKS
SPRINGFIELD    CLOUDY    30  17  58 SE9       30.43F WCI  22
JOPLIN         CLOUDY    34  18  52 S7        30.43S WCI  28
BRANSON        CLOUDY    28  19  69 E8        30.46F WCI  20

$$
MOZ032>034-039>042-045>050-055>058-069>072-101500-
...CENTRAL MISSOURI...

CITY           SKY/WX    TMP DP  RH WIND       PRES   REMARKS
COLUMBIA       CLOUDY    25  14  63 SE8       30.49F WCI  16
JEFFERSON CITY CLOUDY    26  14  60 E5        30.52F WCI  20
ROLLA          CLOUDY    24  13  62 SE6       30.48S WCI  17
SEDALIA        CLOUDY    27  14  58 SE9       30.48F WCI  18
WHITEMAN AFB   CLOUDY    27  16  64 SE7       30.44F WCI  19
WARRENSBURG    CLOUDY    28  18  64 NE5       30.45F WCI  23
OSAGE BEACH    CLOUDY    27  16  63 SE3       30.50S

$$
MOZ051-052-059>065-101500-
...EAST CENTRAL MISSOURI...

CITY           SKY/WX    TMP DP  RH WIND       PRES   REMARKS
ST LOUIS INTL  CLOUDY    28  13  53 SE5       30.57R WCI  23
SPIRIT OF STL  CLOUDY    26  17  68 CALM      30.56S
ST CHARLES     CLOUDY    26  17  68 CALM      30.58R

$$
MOZ072>076-082>087-097>100-106>115-101500-
...SOUTH CENTRAL AND SOUTHEAST MISSOURI...

CITY           SKY/WX    TMP DP  RH WIND       PRES   REMARKS
CAPE GIRARDEAU CLEAR     21  18  88 CALM      30.61R
FARMINGTON     CLOUDY    19  16  88 CALM      30.55S
POPLAR BLUFF   CLOUDY    21  18  88 CALM      30.60F
WEST PLAINS    CLOUDY    22  16  78 SE3       30.50F

$$




USA.gov is the U.S. government's official web portal to all federal, state and local government web resources and services.